Location: Arpaise
(41.0333°N, 14.7333°E)
Time: 08:12:34
(UTC+00:00)

IRIS - Pass Details

Date: 05 July 2020
Orbit: 279 x 2722 km, 41.2° (Epoch: 05 August)

Event Time Altitude Azimuth Distance (km) Brightness Sun altitude
Rises 20:38:14 0° 268° (W) 2,404 8.6 -17.7°
Reaches altitude 10° 20:40:37 10° 269° (W) 1,330 7.2 -17.9°
Enters shadow 20:42:59 58° 277° (W) 362 4.0 -18.2°
